Year,Month,Day,Hour,Minute,Value (Times are PST for temperature in C)
2015,05,07,00,00,8.70
2015,05,07,00,01,8.70
2015,05,07,00,02,8.70
2015,05,07,00,03,8.70
2015,05,07,00,04,8.70
2015,05,07,00,05,8.70
2015,05,07,00,06,8.70
2015,05,07,00,07,8.70
2015,05,07,00,08,8.70
2015,05,07,00,09,8.70
2015,05,07,00,10,8.60
2015,05,07,00,11,8.60
2015,05,07,00,12,8.60
2015,05,07,00,13,8.60
2015,05,07,00,14,8.60
2015,05,07,00,15,8.60
2015,05,07,00,16,8.60
2015,05,07,00,17,8.50
2015,05,07,00,18,8.50
2015,05,07,00,19,8.50
2015,05,07,00,20,8.50
2015,05,07,00,21,8.40
2015,05,07,00,22,8.40
2015,05,07,00,23,8.40
2015,05,07,00,24,8.40
2015,05,07,00,25,8.40
2015,05,07,00,26,8.40
2015,05,07,00,27,8.40
2015,05,07,00,28,8.40
2015,05,07,00,29,8.40
2015,05,07,00,30,8.40
2015,05,07,00,31,8.40
2015,05,07,00,32,8.40
2015,05,07,00,33,8.30
2015,05,07,00,34,8.30
2015,05,07,00,35,8.30
2015,05,07,00,36,8.30
2015,05,07,00,37,8.30
2015,05,07,00,38,8.20
2015,05,07,00,39,8.20
2015,05,07,00,40,8.20
2015,05,07,00,41,8.20
2015,05,07,00,42,8.20
2015,05,07,00,43,8.20
2015,05,07,00,44,8.20
2015,05,07,00,45,8.10
2015,05,07,00,46,8.10
2015,05,07,00,47,8.10
2015,05,07,00,48,8.10
2015,05,07,00,49,8.10
2015,05,07,00,50,8.10
2015,05,07,00,51,8.10
2015,05,07,00,52,8.10
2015,05,07,00,53,8.10
2015,05,07,00,54,8.10
2015,05,07,00,55,8.00
2015,05,07,00,56,8.00
2015,05,07,00,57,8.00
2015,05,07,00,58,8.00
2015,05,07,00,59,8.00
2015,05,07,01,00,8.00
2015,05,07,01,01,8.00
2015,05,07,01,02,8.00
2015,05,07,01,03,7.90
2015,05,07,01,04,7.90
2015,05,07,01,05,7.90
2015,05,07,01,06,7.90
2015,05,07,01,07,7.90
2015,05,07,01,08,7.90
2015,05,07,01,09,7.90
2015,05,07,01,10,7.80
2015,05,07,01,11,7.80
2015,05,07,01,12,7.80
2015,05,07,01,13,7.80
2015,05,07,01,14,7.80
2015,05,07,01,15,7.80
2015,05,07,01,16,7.80
2015,05,07,01,17,7.70
2015,05,07,01,18,7.70
2015,05,07,01,19,7.70
2015,05,07,01,20,7.70
2015,05,07,01,21,7.70
2015,05,07,01,22,7.60
2015,05,07,01,23,7.60
2015,05,07,01,24,7.60
2015,05,07,01,25,7.60
2015,05,07,01,26,7.60
2015,05,07,01,27,7.60
2015,05,07,01,28,7.50
2015,05,07,01,29,7.50
2015,05,07,01,30,7.50
2015,05,07,01,31,7.50
2015,05,07,01,32,7.40
2015,05,07,01,33,7.40
2015,05,07,01,34,7.40
2015,05,07,01,35,7.40
2015,05,07,01,36,7.40
2015,05,07,01,37,7.40
2015,05,07,01,38,7.40
2015,05,07,01,39,7.40
2015,05,07,01,40,7.40
2015,05,07,01,41,7.40
2015,05,07,01,42,7.40
2015,05,07,01,43,7.40
2015,05,07,01,44,7.40
2015,05,07,01,45,7.40
2015,05,07,01,46,7.40
2015,05,07,01,47,7.40
2015,05,07,01,48,7.40
2015,05,07,01,49,7.40
2015,05,07,01,50,7.30
2015,05,07,01,51,7.30
2015,05,07,01,52,7.30
2015,05,07,01,53,7.30
2015,05,07,01,54,7.30
2015,05,07,01,55,7.30
2015,05,07,01,56,7.30
2015,05,07,01,57,7.20
2015,05,07,01,58,7.20
2015,05,07,01,59,7.20
2015,05,07,02,00,7.20
2015,05,07,02,01,7.20
2015,05,07,02,02,7.20
2015,05,07,02,03,7.10
2015,05,07,02,04,7.10
2015,05,07,02,05,7.10
2015,05,07,02,06,7.10
2015,05,07,02,07,7.10
2015,05,07,02,08,7.10
2015,05,07,02,09,7.00
2015,05,07,02,10,7.00
2015,05,07,02,11,7.00
2015,05,07,02,12,7.00
2015,05,07,02,13,7.00
2015,05,07,02,14,7.00
2015,05,07,02,15,6.90
2015,05,07,02,16,6.90
2015,05,07,02,17,6.90
2015,05,07,02,18,6.90
2015,05,07,02,19,6.80
2015,05,07,02,20,6.80
2015,05,07,02,21,6.80
2015,05,07,02,22,6.80
2015,05,07,02,23,6.80
2015,05,07,02,24,6.80
2015,05,07,02,25,6.70
2015,05,07,02,26,6.70
2015,05,07,02,27,6.70
2015,05,07,02,28,6.70
2015,05,07,02,29,6.70
2015,05,07,02,30,6.60
2015,05,07,02,31,6.60
2015,05,07,02,32,6.60
2015,05,07,02,33,6.60
2015,05,07,02,34,6.60
2015,05,07,02,35,6.50
2015,05,07,02,36,6.50
2015,05,07,02,37,6.50
2015,05,07,02,38,6.40
2015,05,07,02,39,6.40
2015,05,07,02,40,6.40
2015,05,07,02,41,6.40
2015,05,07,02,42,6.40
2015,05,07,02,43,6.40
2015,05,07,02,44,6.30
2015,05,07,02,45,6.30
2015,05,07,02,46,6.30
2015,05,07,02,47,6.30
2015,05,07,02,48,6.20
2015,05,07,02,49,6.20
2015,05,07,02,50,6.20
2015,05,07,02,51,6.20
2015,05,07,02,52,6.10
2015,05,07,02,53,6.10
2015,05,07,02,54,6.10
2015,05,07,02,55,6.10
2015,05,07,02,56,6.10
2015,05,07,02,57,6.00
2015,05,07,02,58,6.00
2015,05,07,02,59,6.00
2015,05,07,03,00,6.00
2015,05,07,03,01,6.00
2015,05,07,03,02,6.00
2015,05,07,03,03,6.00
2015,05,07,03,04,6.00
2015,05,07,03,05,6.00
2015,05,07,03,06,6.00
2015,05,07,03,07,6.00
2015,05,07,03,08,6.00
2015,05,07,03,09,6.00
2015,05,07,03,10,6.00
2015,05,07,03,11,6.00
2015,05,07,03,12,5.90
2015,05,07,03,13,5.90
2015,05,07,03,14,5.90
2015,05,07,03,15,5.90
2015,05,07,03,16,5.90
2015,05,07,03,17,5.90
2015,05,07,03,18,5.90
2015,05,07,03,19,5.90
2015,05,07,03,20,5.90
2015,05,07,03,21,5.90
2015,05,07,03,22,5.90
2015,05,07,03,23,5.90
2015,05,07,03,24,5.90
2015,05,07,03,25,5.90
2015,05,07,03,26,5.90
2015,05,07,03,27,5.90
2015,05,07,03,28,5.90
2015,05,07,03,29,5.90
2015,05,07,03,30,5.90
2015,05,07,03,31,5.90
2015,05,07,03,32,5.80
2015,05,07,03,33,5.80
2015,05,07,03,34,5.80
2015,05,07,03,35,5.80
2015,05,07,03,36,5.80
2015,05,07,03,37,5.80
2015,05,07,03,38,5.80
2015,05,07,03,39,5.80
2015,05,07,03,40,5.80
2015,05,07,03,41,5.80
2015,05,07,03,42,5.80
2015,05,07,03,43,5.80
2015,05,07,03,44,5.80
2015,05,07,03,45,5.80
2015,05,07,03,46,5.80
2015,05,07,03,47,5.80
2015,05,07,03,48,5.80
2015,05,07,03,49,5.80
2015,05,07,03,50,5.80
2015,05,07,03,51,5.80
2015,05,07,03,52,5.80
2015,05,07,03,53,5.80
2015,05,07,03,54,5.70
2015,05,07,03,55,5.70
2015,05,07,03,56,5.70
2015,05,07,03,57,5.70
2015,05,07,03,58,5.70
2015,05,07,03,59,5.70
2015,05,07,04,00,5.70
2015,05,07,04,01,5.70
2015,05,07,04,02,5.70
2015,05,07,04,03,5.70
2015,05,07,04,04,5.70
2015,05,07,04,05,5.70
2015,05,07,04,06,5.70
2015,05,07,04,07,5.70
2015,05,07,04,08,5.70
2015,05,07,04,09,5.60
2015,05,07,04,10,5.60
2015,05,07,04,11,5.60
2015,05,07,04,12,5.60
2015,05,07,04,13,5.60
2015,05,07,04,14,5.60
2015,05,07,04,15,5.60
2015,05,07,04,16,5.60
2015,05,07,04,17,5.60
2015,05,07,04,18,5.50
2015,05,07,04,19,5.50
2015,05,07,04,20,5.50
2015,05,07,04,21,5.40
2015,05,07,04,22,5.40
2015,05,07,04,23,5.40
2015,05,07,04,24,5.40
2015,05,07,04,25,5.40
2015,05,07,04,26,5.40
2015,05,07,04,27,5.40
2015,05,07,04,28,5.30
2015,05,07,04,29,5.30
2015,05,07,04,30,5.30
2015,05,07,04,31,5.30
2015,05,07,04,32,5.30
2015,05,07,04,33,5.30
2015,05,07,04,34,5.30
2015,05,07,04,35,5.30
2015,05,07,04,36,5.20
2015,05,07,04,37,5.20
2015,05,07,04,38,5.20
2015,05,07,04,39,5.20
2015,05,07,04,40,5.20
2015,05,07,04,41,5.20
2015,05,07,04,42,5.20
2015,05,07,04,43,5.20
2015,05,07,04,44,5.20
2015,05,07,04,45,5.20
2015,05,07,04,46,5.20
2015,05,07,04,47,5.10
2015,05,07,04,48,5.10
2015,05,07,04,49,5.10
2015,05,07,04,50,5.10
2015,05,07,04,51,5.10
2015,05,07,04,52,5.10
2015,05,07,04,53,5.10
2015,05,07,04,54,5.10
2015,05,07,04,55,5.00
2015,05,07,04,56,5.00
2015,05,07,04,57,5.00
2015,05,07,04,58,5.00
2015,05,07,04,59,4.90
2015,05,07,05,00,4.90
2015,05,07,05,01,4.90
2015,05,07,05,02,4.90
2015,05,07,05,03,4.90
2015,05,07,05,04,4.80
2015,05,07,05,05,4.80
2015,05,07,05,06,4.80
2015,05,07,05,07,4.80
2015,05,07,05,08,4.80
2015,05,07,05,09,4.80
2015,05,07,05,10,4.80
2015,05,07,05,11,4.80
2015,05,07,05,12,4.80
2015,05,07,05,13,4.90
2015,05,07,05,14,4.90
2015,05,07,05,15,4.90
2015,05,07,05,16,4.90
2015,05,07,05,17,4.90
2015,05,07,05,18,4.90
2015,05,07,05,19,4.90
2015,05,07,05,20,4.90
2015,05,07,05,21,4.80
2015,05,07,05,22,4.80
2015,05,07,05,23,4.80
2015,05,07,05,24,4.80
2015,05,07,05,25,4.80
2015,05,07,05,26,4.80
2015,05,07,05,27,4.80
2015,05,07,05,28,4.90
2015,05,07,05,29,4.90
2015,05,07,05,30,4.90
2015,05,07,05,31,4.90
2015,05,07,05,32,4.90
2015,05,07,05,33,4.90
2015,05,07,05,34,4.90
2015,05,07,05,35,4.90
2015,05,07,05,36,4.90
2015,05,07,05,37,4.90
2015,05,07,05,38,4.90
2015,05,07,05,39,4.90
2015,05,07,05,40,4.90
2015,05,07,05,41,4.90
2015,05,07,05,42,4.90
2015,05,07,05,43,4.90
2015,05,07,05,44,4.80
2015,05,07,05,45,4.80
2015,05,07,05,46,4.80
2015,05,07,05,47,4.80
2015,05,07,05,48,4.80
2015,05,07,05,49,4.80
2015,05,07,05,50,4.80
2015,05,07,05,51,4.70
2015,05,07,05,52,4.70
2015,05,07,05,53,4.70
2015,05,07,05,54,4.70
2015,05,07,05,55,4.70
2015,05,07,05,56,4.70
2015,05,07,05,57,4.70
2015,05,07,05,58,4.70
2015,05,07,05,59,4.70
2015,05,07,06,00,4.70
2015,05,07,06,01,4.70
2015,05,07,06,02,4.70
2015,05,07,06,03,4.70
2015,05,07,06,04,4.70
2015,05,07,06,05,4.70
2015,05,07,06,06,4.70
2015,05,07,06,07,4.70
2015,05,07,06,08,4.70
2015,05,07,06,09,4.70
2015,05,07,06,10,4.70
2015,05,07,06,11,4.70
2015,05,07,06,12,4.70
2015,05,07,06,13,4.70
2015,05,07,06,14,4.70
2015,05,07,06,15,4.70
2015,05,07,06,16,4.70
2015,05,07,06,17,4.70
2015,05,07,06,18,4.70
2015,05,07,06,19,4.70
2015,05,07,06,20,4.70
2015,05,07,06,21,4.70
2015,05,07,06,22,4.70
2015,05,07,06,23,4.70
2015,05,07,06,24,4.70
2015,05,07,06,25,4.70
2015,05,07,06,26,4.70
2015,05,07,06,27,4.70
2015,05,07,06,28,4.70
2015,05,07,06,29,4.70
2015,05,07,06,30,4.70
2015,05,07,06,31,4.70
2015,05,07,06,32,4.70
2015,05,07,06,33,4.70
2015,05,07,06,34,4.80
2015,05,07,06,35,4.80
2015,05,07,06,36,4.80
2015,05,07,06,37,4.80
2015,05,07,06,38,4.80
2015,05,07,06,39,4.80
2015,05,07,06,40,4.80
2015,05,07,06,41,4.80
2015,05,07,06,42,4.80
2015,05,07,06,43,4.90
2015,05,07,06,44,4.90
2015,05,07,06,45,4.90
2015,05,07,06,46,4.90
2015,05,07,06,47,5.00
2015,05,07,06,48,5.10
2015,05,07,06,49,5.10
2015,05,07,06,50,5.20
2015,05,07,06,51,5.20
2015,05,07,06,52,5.20
2015,05,07,06,53,5.30
2015,05,07,06,54,5.30
2015,05,07,06,55,5.30
2015,05,07,06,56,5.40
2015,05,07,06,57,5.40
2015,05,07,06,58,5.40
2015,05,07,06,59,5.50
2015,05,07,07,00,5.50
2015,05,07,07,01,5.50
2015,05,07,07,02,5.60
2015,05,07,07,03,5.60
2015,05,07,07,04,5.60
2015,05,07,07,05,5.60
2015,05,07,07,06,5.60
2015,05,07,07,07,5.60
2015,05,07,07,08,5.60
2015,05,07,07,09,5.60
2015,05,07,07,10,5.70
2015,05,07,07,11,5.70
2015,05,07,07,12,5.70
2015,05,07,07,13,5.70
2015,05,07,07,14,5.80
2015,05,07,07,15,5.80
2015,05,07,07,16,5.90
2015,05,07,07,17,5.90
2015,05,07,07,18,6.00
2015,05,07,07,19,6.00
2015,05,07,07,20,6.10
2015,05,07,07,21,6.10
2015,05,07,07,22,6.20
2015,05,07,07,23,6.20
2015,05,07,07,24,6.20
2015,05,07,07,25,6.30
2015,05,07,07,26,6.30
2015,05,07,07,27,6.40
2015,05,07,07,28,6.40
2015,05,07,07,29,6.50
2015,05,07,07,30,6.50
2015,05,07,07,31,6.50
2015,05,07,07,32,6.60
2015,05,07,07,33,6.60
2015,05,07,07,34,6.60
2015,05,07,07,35,6.70
2015,05,07,07,36,6.70
2015,05,07,07,37,6.70
2015,05,07,07,38,6.70
2015,05,07,07,39,6.70
2015,05,07,07,40,6.80
2015,05,07,07,41,6.80
2015,05,07,07,42,6.90
2015,05,07,07,43,6.90
2015,05,07,07,44,7.00
2015,05,07,07,45,7.00
2015,05,07,07,46,7.10
2015,05,07,07,47,7.10
2015,05,07,07,48,7.10
2015,05,07,07,49,7.20
2015,05,07,07,50,7.20
2015,05,07,07,51,7.20
2015,05,07,07,52,7.20
2015,05,07,07,53,7.30
2015,05,07,07,54,7.30
2015,05,07,07,55,7.30
2015,05,07,07,56,7.40
2015,05,07,07,57,7.50
2015,05,07,07,58,7.50
2015,05,07,07,59,7.60
2015,05,07,08,00,7.70
2015,05,07,08,01,7.70
2015,05,07,08,02,7.80
2015,05,07,08,03,7.80
2015,05,07,08,04,7.80
2015,05,07,08,05,7.90
2015,05,07,08,06,8.00
2015,05,07,08,07,8.00
2015,05,07,08,08,8.10
2015,05,07,08,09,8.10
2015,05,07,08,10,8.20
2015,05,07,08,11,8.20
2015,05,07,08,12,8.30
2015,05,07,08,13,8.40
2015,05,07,08,14,8.40
2015,05,07,08,15,8.50
2015,05,07,08,16,8.60
2015,05,07,08,17,8.60
2015,05,07,08,18,8.70
2015,05,07,08,19,8.70
2015,05,07,08,20,8.80
2015,05,07,08,21,8.80
2015,05,07,08,22,8.90
2015,05,07,08,23,9.00
2015,05,07,08,24,9.00
2015,05,07,08,25,9.10
2015,05,07,08,26,9.20
2015,05,07,08,27,9.20
2015,05,07,08,28,9.30
2015,05,07,08,29,9.30
2015,05,07,08,30,9.40
2015,05,07,08,31,9.40
2015,05,07,08,32,9.50
2015,05,07,08,33,9.50
2015,05,07,08,34,9.60
2015,05,07,08,35,9.70
2015,05,07,08,36,9.70
2015,05,07,08,37,9.80
2015,05,07,08,38,9.80
2015,05,07,08,39,9.90
2015,05,07,08,40,10.00
2015,05,07,08,41,10.00
2015,05,07,08,42,10.10
2015,05,07,08,43,10.20
2015,05,07,08,44,10.30
2015,05,07,08,45,10.30
2015,05,07,08,46,10.40
2015,05,07,08,47,10.50
2015,05,07,08,48,10.60
2015,05,07,08,49,10.70
2015,05,07,08,50,10.80
2015,05,07,08,51,10.80
2015,05,07,08,52,10.90
2015,05,07,08,53,11.00
2015,05,07,08,54,11.10
2015,05,07,08,55,11.20
2015,05,07,08,56,11.30
2015,05,07,08,57,11.30
2015,05,07,08,58,11.50
2015,05,07,08,59,11.60
2015,05,07,09,00,11.70
2015,05,07,09,01,11.80
2015,05,07,09,02,11.90
2015,05,07,09,03,12.00
2015,05,07,09,04,12.10
2015,05,07,09,05,12.20
2015,05,07,09,06,12.30
2015,05,07,09,07,12.40
2015,05,07,09,08,12.50
2015,05,07,09,09,12.60
2015,05,07,09,10,12.70
2015,05,07,09,11,12.70
2015,05,07,09,12,12.80
2015,05,07,09,13,12.90
2015,05,07,09,14,12.90
2015,05,07,09,15,13.00
2015,05,07,09,16,13.10
2015,05,07,09,17,13.10
2015,05,07,09,18,13.20
2015,05,07,09,19,13.30
2015,05,07,09,20,13.40
2015,05,07,09,21,13.40
2015,05,07,09,22,13.50
2015,05,07,09,23,13.60
2015,05,07,09,24,13.70
2015,05,07,09,25,13.70
2015,05,07,09,26,13.80
2015,05,07,09,27,13.80
2015,05,07,09,28,13.90
2015,05,07,09,29,13.90
2015,05,07,09,30,13.90
2015,05,07,09,31,13.90
2015,05,07,09,32,13.90
2015,05,07,09,33,13.90
2015,05,07,09,34,13.90
2015,05,07,09,35,13.90
2015,05,07,09,36,13.90
2015,05,07,09,37,14.00
2015,05,07,09,38,14.00
2015,05,07,09,39,14.10
2015,05,07,09,40,14.20
2015,05,07,09,41,14.20
2015,05,07,09,42,14.30
2015,05,07,09,43,14.40
2015,05,07,09,44,14.40
2015,05,07,09,45,14.50
2015,05,07,09,46,14.60
2015,05,07,09,47,14.70
2015,05,07,09,48,14.70
2015,05,07,09,49,14.80
2015,05,07,09,50,14.80
2015,05,07,09,51,14.80
2015,05,07,09,52,14.90
2015,05,07,09,53,14.90
2015,05,07,09,54,15.00
2015,05,07,09,55,15.00
2015,05,07,09,56,15.00
2015,05,07,09,57,15.10
2015,05,07,09,58,15.10
2015,05,07,09,59,15.10
2015,05,07,10,00,15.20
2015,05,07,10,01,15.20
2015,05,07,10,02,15.30
2015,05,07,10,03,15.30
2015,05,07,10,04,15.40
2015,05,07,10,05,15.40
2015,05,07,10,06,15.50
2015,05,07,10,07,15.50
2015,05,07,10,08,15.60
2015,05,07,10,09,15.60
2015,05,07,10,10,15.70
2015,05,07,10,11,15.80
2015,05,07,10,12,15.80
2015,05,07,10,13,15.90
2015,05,07,10,14,15.90
2015,05,07,10,15,15.90
2015,05,07,10,16,15.90
2015,05,07,10,17,16.00
2015,05,07,10,18,16.00
2015,05,07,10,19,16.00
2015,05,07,10,20,16.00
2015,05,07,10,21,16.10
2015,05,07,10,22,16.10
2015,05,07,10,23,16.20
2015,05,07,10,24,16.20
2015,05,07,10,25,16.30
2015,05,07,10,26,16.30
2015,05,07,10,27,16.30
2015,05,07,10,28,16.20
2015,05,07,10,29,16.10
2015,05,07,10,30,16.00
2015,05,07,10,31,15.90
2015,05,07,10,32,15.80
2015,05,07,10,33,15.70
2015,05,07,10,34,15.60
2015,05,07,10,35,15.60
2015,05,07,10,36,15.60
2015,05,07,10,37,15.60
2015,05,07,10,38,15.50
2015,05,07,10,39,15.50
2015,05,07,10,40,15.50
2015,05,07,10,41,15.40
2015,05,07,10,42,15.30
2015,05,07,10,43,15.30
2015,05,07,10,44,15.30
2015,05,07,10,45,15.30
2015,05,07,10,46,15.30
2015,05,07,10,47,15.30
2015,05,07,10,48,15.40
2015,05,07,10,49,15.40
2015,05,07,10,50,15.40
2015,05,07,10,51,15.50
2015,05,07,10,52,15.60
2015,05,07,10,53,15.60
2015,05,07,10,54,15.70
2015,05,07,10,55,15.80
2015,05,07,10,56,15.90
2015,05,07,10,57,15.90
2015,05,07,10,58,15.90
2015,05,07,10,59,15.90
2015,05,07,11,00,15.80
2015,05,07,11,01,15.80
2015,05,07,11,02,15.80
2015,05,07,11,03,15.80
2015,05,07,11,04,15.80
2015,05,07,11,05,15.80
2015,05,07,11,06,15.80
2015,05,07,11,07,15.70
2015,05,07,11,08,15.60
2015,05,07,11,09,15.50
2015,05,07,11,10,15.50
2015,05,07,11,11,15.60
2015,05,07,11,12,15.60
2015,05,07,11,13,15.60
2015,05,07,11,14,15.60
2015,05,07,11,15,15.60
2015,05,07,11,16,15.60
2015,05,07,11,17,15.60
2015,05,07,11,18,15.50
2015,05,07,11,19,15.40
2015,05,07,11,20,15.40
2015,05,07,11,21,15.40
2015,05,07,11,22,15.40
2015,05,07,11,23,15.40
2015,05,07,11,24,15.40
2015,05,07,11,25,15.40
2015,05,07,11,26,15.40
2015,05,07,11,27,15.30
2015,05,07,11,28,15.30
2015,05,07,11,29,15.30
2015,05,07,11,30,15.30
2015,05,07,11,31,15.40
2015,05,07,11,32,15.50
2015,05,07,11,33,15.60
2015,05,07,11,34,15.70
2015,05,07,11,35,15.70
2015,05,07,11,36,15.80
2015,05,07,11,37,15.80
2015,05,07,11,38,15.80
2015,05,07,11,39,15.80
2015,05,07,11,40,15.80
2015,05,07,11,41,15.80
2015,05,07,11,42,15.80
2015,05,07,11,43,15.80
2015,05,07,11,44,15.80
2015,05,07,11,45,15.70
2015,05,07,11,46,15.70
2015,05,07,11,47,15.70
2015,05,07,11,48,15.80
2015,05,07,11,49,15.80
2015,05,07,11,50,15.80
2015,05,07,11,51,15.90
2015,05,07,11,52,15.90
2015,05,07,11,53,15.90
2015,05,07,11,54,16.00
2015,05,07,11,55,16.00
2015,05,07,11,56,16.10
2015,05,07,11,57,16.20
2015,05,07,11,58,16.20
2015,05,07,11,59,16.30
2015,05,07,12,00,16.40
2015,05,07,12,01,16.50
2015,05,07,12,02,16.50
2015,05,07,12,03,16.60
2015,05,07,12,04,16.50
2015,05,07,12,05,16.50
2015,05,07,12,06,16.40
2015,05,07,12,07,16.40
2015,05,07,12,08,16.40
2015,05,07,12,09,16.40
2015,05,07,12,10,16.50
2015,05,07,12,11,16.50
2015,05,07,12,12,16.60
2015,05,07,12,13,16.70
2015,05,07,12,14,16.70
2015,05,07,12,15,16.70
2015,05,07,12,16,16.80
2015,05,07,12,17,16.80
2015,05,07,12,18,16.70
2015,05,07,12,19,16.70
2015,05,07,12,20,16.60
2015,05,07,12,21,16.60
2015,05,07,12,22,16.60
2015,05,07,12,23,16.60
2015,05,07,12,24,16.50
2015,05,07,12,25,16.50
2015,05,07,12,26,16.40
2015,05,07,12,27,16.40
2015,05,07,12,28,16.40
2015,05,07,12,29,16.40
2015,05,07,12,30,16.40
2015,05,07,12,31,16.40
2015,05,07,12,32,16.40
2015,05,07,12,33,16.40
2015,05,07,12,34,16.40
2015,05,07,12,35,16.30
2015,05,07,12,36,16.30
2015,05,07,12,37,16.30
2015,05,07,12,38,16.30
2015,05,07,12,39,16.30
2015,05,07,12,40,16.30
2015,05,07,12,41,16.30
2015,05,07,12,42,16.30
2015,05,07,12,43,16.30
2015,05,07,12,44,16.20
2015,05,07,12,45,16.10
2015,05,07,12,46,16.10
2015,05,07,12,47,16.00
2015,05,07,12,48,16.00
2015,05,07,12,49,15.90
2015,05,07,12,50,15.90
2015,05,07,12,51,16.00
2015,05,07,12,52,16.00
2015,05,07,12,53,16.10
2015,05,07,12,54,16.10
2015,05,07,12,55,16.10
2015,05,07,12,56,16.10
2015,05,07,12,57,16.10
2015,05,07,12,58,16.10
2015,05,07,12,59,16.00
2015,05,07,13,00,16.00
2015,05,07,13,01,16.00
2015,05,07,13,02,15.90
2015,05,07,13,03,15.90
2015,05,07,13,04,15.80
2015,05,07,13,05,15.80
2015,05,07,13,06,15.80
2015,05,07,13,07,15.80
2015,05,07,13,08,15.80
2015,05,07,13,09,15.80
2015,05,07,13,10,16.00
2015,05,07,13,11,16.10
2015,05,07,13,12,16.20
2015,05,07,13,13,16.30
2015,05,07,13,14,16.30
2015,05,07,13,15,16.30
2015,05,07,13,16,16.30
2015,05,07,13,17,16.30
2015,05,07,13,18,16.30
2015,05,07,13,19,16.40
2015,05,07,13,20,16.40
2015,05,07,13,21,16.40
2015,05,07,13,22,16.30
2015,05,07,13,23,16.30
2015,05,07,13,24,16.30
2015,05,07,13,25,16.30
2015,05,07,13,26,16.30
2015,05,07,13,27,16.20
2015,05,07,13,28,16.20
2015,05,07,13,29,16.30
2015,05,07,13,30,16.30
2015,05,07,13,31,16.30
2015,05,07,13,32,16.30
2015,05,07,13,33,16.30
2015,05,07,13,34,16.20
2015,05,07,13,35,16.20
2015,05,07,13,36,16.20
2015,05,07,13,37,16.30
2015,05,07,13,38,16.40
2015,05,07,13,39,16.40
2015,05,07,13,40,16.50
2015,05,07,13,41,16.60
2015,05,07,13,42,16.60
2015,05,07,13,43,16.70
2015,05,07,13,44,16.70
2015,05,07,13,45,16.70
2015,05,07,13,46,16.60
2015,05,07,13,47,16.60
2015,05,07,13,48,16.50
2015,05,07,13,49,16.40
2015,05,07,13,50,16.50
2015,05,07,13,51,16.50
2015,05,07,13,52,16.60
2015,05,07,13,53,16.70
2015,05,07,13,54,16.70
2015,05,07,13,55,16.80
2015,05,07,13,56,16.80
2015,05,07,13,57,16.80
2015,05,07,13,58,16.80
2015,05,07,13,59,16.70
2015,05,07,14,00,16.70
2015,05,07,14,01,16.70
2015,05,07,14,02,16.80
2015,05,07,14,03,16.80
2015,05,07,14,04,16.80
2015,05,07,14,05,16.90
2015,05,07,14,06,16.90
2015,05,07,14,07,17.00
2015,05,07,14,08,17.00
2015,05,07,14,09,17.10
2015,05,07,14,10,17.10
2015,05,07,14,11,17.20
2015,05,07,14,12,17.20
2015,05,07,14,13,17.20
2015,05,07,14,14,17.20
2015,05,07,14,15,17.10
2015,05,07,14,16,17.10
2015,05,07,14,17,17.10
2015,05,07,14,18,17.10
2015,05,07,14,19,17.20
2015,05,07,14,20,17.20
2015,05,07,14,21,17.20
2015,05,07,14,22,17.20
2015,05,07,14,23,17.20
2015,05,07,14,24,17.10
2015,05,07,14,25,17.10
2015,05,07,14,26,17.00
2015,05,07,14,27,17.10
2015,05,07,14,28,17.10
2015,05,07,14,29,17.10
2015,05,07,14,30,17.10
2015,05,07,14,31,17.10
2015,05,07,14,32,17.10
2015,05,07,14,33,17.10
2015,05,07,14,34,17.10
2015,05,07,14,35,17.10
2015,05,07,14,36,17.20
2015,05,07,14,37,17.20
2015,05,07,14,38,17.30
2015,05,07,14,39,17.30
2015,05,07,14,40,17.40
2015,05,07,14,41,17.40
2015,05,07,14,42,17.30
2015,05,07,14,43,17.30
2015,05,07,14,44,17.30
2015,05,07,14,45,17.20
2015,05,07,14,46,17.20
2015,05,07,14,47,17.20
2015,05,07,14,48,17.20
2015,05,07,14,49,17.30
2015,05,07,14,50,17.30
2015,05,07,14,51,17.30
2015,05,07,14,52,17.40
2015,05,07,14,53,17.50
2015,05,07,14,54,17.50
2015,05,07,14,55,17.60
2015,05,07,14,56,17.60
2015,05,07,14,57,17.70
2015,05,07,14,58,17.70
2015,05,07,14,59,17.80
2015,05,07,15,00,17.80
2015,05,07,15,01,17.80
2015,05,07,15,02,17.90
2015,05,07,15,03,18.00
2015,05,07,15,04,18.00
2015,05,07,15,05,18.10
2015,05,07,15,06,18.10
2015,05,07,15,07,18.10
2015,05,07,15,08,18.10
2015,05,07,15,09,18.10
2015,05,07,15,10,18.20
2015,05,07,15,11,18.20
2015,05,07,15,12,18.20
2015,05,07,15,13,18.30
2015,05,07,15,14,18.30
2015,05,07,15,15,18.40
2015,05,07,15,16,18.40
2015,05,07,15,17,18.40
2015,05,07,15,18,18.30
2015,05,07,15,19,18.40
2015,05,07,15,20,18.40
2015,05,07,15,21,18.40
2015,05,07,15,22,18.50
2015,05,07,15,23,18.60
2015,05,07,15,24,18.70
2015,05,07,15,25,18.80
2015,05,07,15,26,18.80
2015,05,07,15,27,18.70
2015,05,07,15,28,18.70
2015,05,07,15,29,18.60
2015,05,07,15,30,18.60
2015,05,07,15,31,18.50
2015,05,07,15,32,18.40
2015,05,07,15,33,18.40
2015,05,07,15,34,18.50
2015,05,07,15,35,18.50
2015,05,07,15,36,18.60
2015,05,07,15,37,18.70
2015,05,07,15,38,18.80
2015,05,07,15,39,18.90
2015,05,07,15,40,19.00
2015,05,07,15,41,19.00
2015,05,07,15,42,19.00
2015,05,07,15,43,18.90
2015,05,07,15,44,18.90
2015,05,07,15,45,18.90
2015,05,07,15,46,18.80
2015,05,07,15,47,18.70
2015,05,07,15,48,18.70
2015,05,07,15,49,18.60
2015,05,07,15,50,18.50
2015,05,07,15,51,18.50
2015,05,07,15,52,18.50
2015,05,07,15,53,18.50
2015,05,07,15,54,18.50
2015,05,07,15,55,18.50
2015,05,07,15,56,18.50
2015,05,07,15,57,18.60
2015,05,07,15,58,18.60
2015,05,07,15,59,18.60
2015,05,07,16,00,18.60
2015,05,07,16,01,18.60
2015,05,07,16,02,18.60
2015,05,07,16,03,18.60
2015,05,07,16,04,18.60
2015,05,07,16,05,18.70
2015,05,07,16,06,18.70
2015,05,07,16,07,18.80
2015,05,07,16,08,18.80
2015,05,07,16,09,18.80
2015,05,07,16,10,18.80
2015,05,07,16,11,18.70
2015,05,07,16,12,18.70
2015,05,07,16,13,18.70
2015,05,07,16,14,18.70
2015,05,07,16,15,18.70
2015,05,07,16,16,18.70
2015,05,07,16,17,18.60
2015,05,07,16,18,18.60
2015,05,07,16,19,18.60
2015,05,07,16,20,18.50
2015,05,07,16,21,18.60
2015,05,07,16,22,18.60
2015,05,07,16,23,18.70
2015,05,07,16,24,18.70
2015,05,07,16,25,18.70
2015,05,07,16,26,18.80
2015,05,07,16,27,18.80
2015,05,07,16,28,18.80
2015,05,07,16,29,18.90
2015,05,07,16,30,18.90
2015,05,07,16,31,18.90
2015,05,07,16,32,18.90
2015,05,07,16,33,18.90
2015,05,07,16,34,18.90
2015,05,07,16,35,18.90
2015,05,07,16,36,18.90
2015,05,07,16,37,18.90
2015,05,07,16,38,18.90
2015,05,07,16,39,18.90
2015,05,07,16,40,18.90
2015,05,07,16,41,18.90
2015,05,07,16,42,18.90
2015,05,07,16,43,18.90
2015,05,07,16,44,18.90
2015,05,07,16,45,19.00
2015,05,07,16,46,19.10
2015,05,07,16,47,19.20
2015,05,07,16,48,19.30
2015,05,07,16,49,19.30
2015,05,07,16,50,19.40
2015,05,07,16,51,19.30
2015,05,07,16,52,19.30
2015,05,07,16,53,19.30
2015,05,07,16,54,19.30
2015,05,07,16,55,19.30
2015,05,07,16,56,19.30
2015,05,07,16,57,19.20
2015,05,07,16,58,19.20
2015,05,07,16,59,19.20
2015,05,07,17,00,19.20
2015,05,07,17,01,19.20
2015,05,07,17,02,19.20
2015,05,07,17,03,19.20
2015,05,07,17,04,19.20
2015,05,07,17,05,19.20
2015,05,07,17,06,19.20
2015,05,07,17,07,19.30
2015,05,07,17,08,19.40
2015,05,07,17,09,19.40
2015,05,07,17,10,19.40
2015,05,07,17,11,19.50
2015,05,07,17,12,19.50
2015,05,07,17,13,19.60
2015,05,07,17,14,19.70
2015,05,07,17,15,19.70
2015,05,07,17,16,19.80
2015,05,07,17,17,19.80
2015,05,07,17,18,19.80
2015,05,07,17,19,19.80
2015,05,07,17,20,19.80
2015,05,07,17,21,19.80
2015,05,07,17,22,19.80
2015,05,07,17,23,19.70
2015,05,07,17,24,19.60
2015,05,07,17,25,19.60
2015,05,07,17,26,19.50
2015,05,07,17,27,19.40
2015,05,07,17,28,19.40
2015,05,07,17,29,19.40
2015,05,07,17,30,19.40
2015,05,07,17,31,19.40
2015,05,07,17,32,19.40
2015,05,07,17,33,19.40
2015,05,07,17,34,19.50
2015,05,07,17,35,19.60
2015,05,07,17,36,19.60
2015,05,07,17,37,19.70
2015,05,07,17,38,19.70
2015,05,07,17,39,19.80
2015,05,07,17,40,19.80
2015,05,07,17,41,19.80
2015,05,07,17,42,19.90